Flag Weather past 2 weeks in Larvik, Norway

Now
41 °F

Drizzle. Mostly cloudy.


Feels Like: 37 °F
Forecast: 47 / 55 °F
Wind: 6 mph from North

Location: Torp

Current Time: Oct 31, 2014 at 11:45:09 AM

Latest Report: Oct 31, 2014 at 10:50 AM


Visibility: 4 mi

Pressure: 30.24 "Hg

Humidity: 100%

Dew point: 41 °F

Location of LarvikLocation

Historic Weather in Larvik — Graph

°F

Larvik temperature yesterday

Maximum temperature yesterday: 50 °F (at 1:20 PM)
Minimum temperature yesterday: 36 °F (at 1:20 AM)
Average temperature yesterday: 41 °F

Past Weeks' High & Low Weather Summary

 TemperatureHumidityPressure
High59 °F (Oct 20, 1:20 PM)100% (Oct 16, 12:20 PM)30.24 "Hg (Oct 16, 12:20 PM)
Low32 °F (Oct 16, 8:50 PM)47% (Oct 30, 1:20 PM)29.30 "Hg (Oct 20, 3:50 AM)
Average49 °F91%29.80 "Hg
* Reported Oct 16 11:20 AM — Oct 31 10:20 AM, Larvik, Weather by CustomWeather, © 2014

Note: Actual official high and low records may vary slightly from our data, if they occured in-between our weather recording intervals... More about our weather records

Advertising

Larvik weather history for previous 24 hours

 ConditionsComfort  
Time TempWeatherWind HumidityBarometerVisibility
10:20 AM
Oct 31
41 °FLight rain. Partly sunny.5 mph93%30.24 "Hg5 mi
9:50 AM41 °FPartly sunny.5 mph93%30.24 "HgN/A
9:20 AM41 °FOvercast.5 mph93%30.24 "HgN/A
8:50 AM41 °FPartly sunny.5 mph93%30.24 "HgN/A
8:20 AM41 °FPartly sunny.3 mph93%30.24 "HgN/A
7:50 AM41 °FPartly sunny.3 mph93%30.24 "HgN/A
7:20 AM39 °FPassing clouds.3 mph100%30.21 "HgN/A
6:50 AM41 °FPassing clouds.3 mph93%30.21 "HgN/A
6:20 AM41 °FPassing clouds.2 mph93%30.21 "HgN/A
5:50 AM39 °FLight rain. Overcast.1 mph100%30.21 "HgN/A
5:20 AM41 °FMostly cloudy.2 mph93%30.21 "HgN/A
4:50 AM39 °FPassing clouds.1 mph93%30.21 "HgN/A
4:20 AM41 °FLight rain. Overcast.No wind87%30.21 "HgN/A
3:50 AM41 °FPassing clouds.No wind87%30.21 "HgN/A
3:20 AM41 °FPassing clouds.No wind81%30.21 "HgN/A
2:50 AM43 °FPassing clouds.No wind76%30.21 "HgN/A
2:20 AM41 °FMostly cloudy.1 mph81%30.24 "HgN/A
1:50 AM43 °FPassing clouds.2 mph76%30.24 "HgN/A
1:20 AM43 °FPassing clouds.5 mph76%30.24 "HgN/A
12:50 AM43 °FPassing clouds.3 mph76%30.24 "HgN/A
12:20 AM43 °FPassing clouds.3 mph76%30.24 "HgN/A
11:50 PM
Oct 30
43 °FOvercast.3 mph76%30.24 "HgN/A
11:20 PM43 °FPassing clouds.7 mph76%30.24 "HgN/A
10:51 PM43 °FDrizzle. Overcast.10 mph76%30.24 "HgN/A
10:20 PM43 °FClear.5 mph71%30.24 "HgN/A
9:50 PM41 °FPassing clouds.5 mph81%30.24 "HgN/A
9:20 PM41 °FPassing clouds.3 mph81%30.24 "HgN/A
8:50 PM41 °FClear.5 mph76%30.24 "Hg10 mi
8:20 PM41 °FClear.No wind76%30.21 "Hg10 mi
7:50 PM41 °FClear.1 mph76%30.21 "Hg10 mi
7:20 PM41 °FClear.2 mph76%30.21 "Hg10 mi
6:50 PM41 °FClear.1 mph76%30.21 "Hg10 mi
6:20 PM41 °FClear.2 mph76%30.21 "Hg10 mi
5:50 PM41 °FClear.No wind76%30.21 "Hg10 mi
5:20 PM41 °FClear.1 mph70%30.21 "Hg10 mi
4:50 PM43 °FClear.1 mph66%30.21 "Hg10 mi
4:20 PM45 °FSunny.5 mph61%30.21 "Hg10 mi
3:50 PM46 °FSunny.5 mph57%30.21 "Hg10 mi
3:20 PM46 °FSunny.3 mph57%30.21 "Hg10 mi
2:50 PM48 °FSunny.2 mph54%30.21 "Hg10 mi
2:20 PM48 °FPassing clouds.3 mph58%30.18 "HgN/A
1:50 PM50 °FSunny.1 mph50%30.18 "Hg10 mi
1:20 PM50 °FSunny.2 mph47%30.18 "Hg10 mi
12:50 PM48 °FSunny.2 mph50%30.18 "Hg10 mi
12:20 PM46 °FSunny.3 mph53%30.18 "Hg10 mi
11:50 AM46 °FPassing clouds.5 mph62%30.18 "HgN/A
11:20 AM48 °FSunny.6 mph62%30.18 "Hg10 mi
Weather by CustomWeather, © 2014

See weather overviewHow to use our weather pages